ORBCOMM-X 1 21576U 91050C 25258.15497766 .00000364 00000+0 12067-3 0 9994 2 21576 98.3351 322.8884 0002364 275.0892 85.0028 14.43325671795094 ORBCOMM FM01 1 23545U 95017A 25257.99339821 .00005812 00000+0 59433-3 0 9998 2 23545 69.9621 210.0397 0004487 223.3594 136.7208 14.91050443625895 ORBCOMM FM02 1 23546U 95017B 25258.21337200 .00015627 00000+0 15369-2 0 9998 2 23546 69.9627 228.5584 0005508 215.5523 144.5266 14.92176407625581 ORBCOMM FM08 1 25112U 97084A 25258.13865333 .00001071 00000+0 33740-3 0 9991 2 25112 45.0141 295.9771 0007087 323.2943 36.7422 14.46082271454390 ORBCOMM FM10 1 25113U 97084B 25258.13330293 .00000966 00000+0 30980-3 0 9999 2 25113 45.0154 298.5439 0006630 292.5484 67.4666 14.45856659629535 ORBCOMM FM11 1 25114U 97084C 25258.22257968 .00001417 00000+0 43773-3 0 9993 2 25114 45.0140 298.9121 0007369 295.8584 64.1507 14.45608998454502 ORBCOMM FM12 1 25115U 97084D 25258.25290082 .00001472 00000+0 45302-3 0 9992 2 25115 45.0147 298.5077 0006543 291.5355 68.4799 14.45626446454304 ORBCOMM FM09 1 25116U 97084E 25257.60204455 .00000831 00000+0 27431-3 0 9991 2 25116 45.0153 302.6552 0007917 283.2738 76.7231 14.45484691454415 ORBCOMM FM05 1 25117U 97084F 25258.23589359 .00001545 00000+0 46786-3 0 9998 2 25117 45.0149 295.6174 0004381 284.2920 75.7445 14.46202940453644 ORBCOMM FM06 1 25118U 97084G 25258.15549553 .00001653 00000+0 49612-3 0 9993 2 25118 45.0142 295.6401 0003454 276.7002 111.0388 14.46350010454551 ORBCOMM FM07 1 25119U 97084H 25258.16342583 .00001579 00000+0 47560-3 0 9996 2 25119 45.0138 296.3654 0005219 285.0595 74.9679 14.46358712454542 ORBCOMM FM03 1 25158U 98007B 25258.14622266 .00001087 00000+0 42568-3 0 9999 2 25158 107.9649 320.4311 0042817 92.2438 268.3605 14.34690079436942 ORBCOMM FM04 1 25159U 98007C 25258.11502242 .00000652 00000+0 27315-3 0 9998 2 25159 107.9634 323.6481 0038549 89.6286 270.9272 14.34933144437121 ORBCOMM FM17 1 25413U 98046A 25258.19667066 .00001073 00000+0 42022-3 0 9998 2 25413 44.9937 192.7586 0004576 312.6127 47.4334 14.35252420416100 ORBCOMM FM18 1 25414U 98046B 25258.27757365 .00001197 00000+0 43200-3 0 9996 2 25414 44.9922 107.3507 0005085 23.6400 336.4681 14.38769154417229 ORBCOMM FM19 1 25415U 98046C 25258.05904170 .00000769 00000+0 29501-3 0 9993 2 25415 44.9933 110.5274 0003889 18.9563 142.2420 14.38578038417140 ORBCOMM FM20 1 25416U 98046D 25257.99267173 .00000516 00000+0 21850-3 0 9990 2 25416 44.9936 115.9260 0001523 35.1717 324.9231 14.37367430417187 ORBCOMM FM16 1 25417U 98046E 25258.08900121 .00000893 00000+0 33163-3 0 9997 2 25417 44.9929 105.8428 0005065 37.9812 322.1393 14.39127248417200 ORBCOMM FM15 1 25418U 98046F 25258.01808802 .00000744 00000+0 28594-3 0 9991 2 25418 44.9961 111.5949 0004799 36.8318 323.2859 14.38768469417182 ORBCOMM FM14 1 25419U 98046G 25258.01293858 .00000787 00000+0 29758-3 0 9991 2 25419 44.9951 109.5943 0003566 34.5803 325.5277 14.39145478417154 ORBCOMM FM13 1 25420U 98046H 25257.99763656 .00000692 00000+0 27417-3 0 9992 2 25420 44.9969 118.5288 0005678 14.2437 345.8570 14.37857831416163 ORBCOMM FM21 1 25475U 98053A 25258.23338526 .00000985 00000+0 37278-3 0 9993 2 25475 45.0076 203.0177 0003445 317.0240 43.0339 14.37508910410207 ORBCOMM FM22 1 25476U 98053B 25258.20402772 .00001324 00000+0 47459-3 0 9996 2 25476 45.0069 197.2708 0005187 319.4338 40.6124 14.38595366410233 ORBCOMM FM23 1 25477U 98053C 25258.22217333 .00001262 00000+0 46277-3 0 9994 2 25477 45.0076 205.0620 0004469 314.0176 46.0304 14.37712424410354 ORBCOMM FM24 1 25478U 98053D 25258.19365966 .00001292 00000+0 46691-3 0 9990 2 25478 45.0072 202.2757 0004225 319.9781 40.0756 14.38298343410408 ORBCOMM FM25 1 25479U 98053E 25258.16680209 .00001462 00000+0 52270-3 0 9997 2 25479 45.0064 200.6868 0006462 330.3609 29.6872 14.38268133410693 ORBCOMM FM26 1 25480U 98053F 25258.23801646 .00001068 00000+0 40205-3 0 9994 2 25480 45.0062 197.4643 0007937 345.9378 14.1248 14.37296873410608 ORBCOMM FM27 1 25481U 98053G 25258.22200688 .00001436 00000+0 51376-3 0 9993 2 25481 45.0047 200.5944 0002763 323.3957 36.6702 14.38300706410636 ORBCOMM FM28 1 25482U 98053H 25258.04011691 .00000629 00000+0 25030-3 0 9999 2 25482 45.0049 138.8346 0005580 26.0191 334.0937 14.38464175411294 ORBCOMM FM30 1 25980U 99065A 25258.07871617 .00000653 00000+0 26329-3 0 9990 2 25980 45.0329 24.1772 0006361 112.9025 247.2495 14.37463132347380 ORBCOMM FM31 1 25981U 99065B 25258.05593282 .00000632 00000+0 25676-3 0 9999 2 25981 45.0245 17.7538 0004453 145.6140 214.4997 14.37393867346937 ORBCOMM FM32 1 25982U 99065C 25258.09249950 .00000675 00000+0 27623-3 0 9995 2 25982 45.0167 34.7624 0006768 130.9735 229.1699 14.36447302347525 ORBCOMM FM33 1 25983U 99065D 25257.58456463 .00000627 00000+0 24137-3 0 9992 2 25983 45.0285 293.8815 0007922 169.8457 190.2554 14.40169757348958 ORBCOMM FM36 1 25984U 99065E 25257.80457128 .00000887 00000+0 33527-3 0 9998 2 25984 45.0407 26.1355 0001580 51.0919 309.0071 14.38326622347327 ORBCOMM FM35 1 25985U 99065F 25258.05756908 .00000755 00000+0 29815-3 0 9994 2 25985 45.0408 30.6880 0004477 143.1330 216.9827 14.37275435347712 ORBCOMM FM34 1 25986U 99065G 25257.81418839 .00000685 00000+0 27491-3 0 9996 2 25986 45.0403 32.2954 0003478 94.2629 265.8617 14.37275076347794 ORBCOMM FM38 1 33060U 08031A 25258.25294525 .00002104 00000+0 29157-3 0 9993 2 33060 48.4396 245.9287 0004478 61.7539 298.3828 14.81652527928100 ORBCOMM FM41 1 33061U 08031B 25258.28432803 .00002033 00000+0 28543-3 0 9999 2 33061 48.4432 253.8722 0003850 42.7780 330.8471 14.81225701927592 ORBCOMM FM29 1 33062U 08031C 25258.06476068 .00001288 00000+0 19042-3 0 9992 2 33062 48.4385 262.6152 0005491 43.9437 356.7386 14.81335242927471 ORBCOMM FM39 1 33063U 08031D 25258.10943921 .00001018 00000+0 16165-3 0 9999 2 33063 48.4403 287.6732 0006665 15.4438 344.6679 14.79850108927115 ORBCOMM FM37 1 33064U 08031E 25257.48781275 .00001038 00000+0 16341-3 0 9990 2 33064 48.4395 279.0111 0005026 30.8830 122.1177 14.80055704927279 ORBCOMM FM40 1 33065U 08031F 25258.31407318 .00002438 00000+0 32777-3 0 9993 2 33065 48.4411 257.5836 0006029 50.9008 322.7330 14.82401490927535 VESSELSAT 1 1 37840U 11058C 25258.17208907 .00000401 00000+0 74272-4 0 9993 2 37840 19.9615 269.3852 0013819 96.3805 263.8173 14.11369935719035 ORBCOMM FM109 1 40086U 14040A 25258.28425673 .00000586 00000+0 16189-3 0 9992 2 40086 47.0039 310.7440 0001205 354.6220 5.4652 14.58300743594210 ORBCOMM FM107 1 40087U 14040B 25258.17124804 .00000679 00000+0 18165-3 0 9992 2 40087 47.0057 312.2057 0001811 299.2761 60.7944 14.58382964594278 ORBCOMM FM106 1 40088U 14040C 25257.97757627 .00000694 00000+0 14699-3 0 9990 2 40088 47.0597 128.0155 0016378 124.6979 235.5458 14.69641131596681 ORBCOMM FM111 1 40089U 14040D 25258.21462841 .00003504 00000+0 40948-3 0 9999 2 40089 47.0023 324.8125 0031079 264.4023 95.3330 14.86799107603627 ORBCOMM FM104 1 40090U 14040E 25258.25882806 .00000658 00000+0 18306-3 0 9992 2 40090 47.0069 346.4876 0017277 256.3796 103.5165 14.56772390593755 ORBCOMM FM103 1 40091U 14040F 25258.28558070 .00000636 00000+0 17279-3 0 9993 2 40091 47.0060 312.2668 0002327 307.8526 52.2149 14.58301072577256 ORBCOMM FM114 1 41179U 15081A 25257.34543043 .00000458 00000+0 13442-3 0 9997 2 41179 47.0018 225.7054 0001962 9.3659 350.7263 14.58333406517487 ORBCOMM FM119 1 41180U 15081B 25258.02271136 .00000383 00000+0 11856-3 0 9990 2 41180 46.9998 131.8437 0000605 97.3881 262.7073 14.58270511518831 ORBCOMM FM105 1 41181U 15081C 25257.95572538 .00000141 00000+0 84287-4 0 9993 2 41181 47.0009 145.8454 0002000 346.9754 13.1075 14.45287110513737 ORBCOMM FM110 1 41182U 15081D 25258.22826213 .00000856 00000+0 21964-3 0 9992 2 41182 47.0011 221.0712 0003144 265.7135 94.3391 14.58347452517484 ORBCOMM FM118 1 41183U 15081E 25258.26053515 .00000668 00000+0 17941-3 0 9995 2 41183 47.0032 221.1747 0003052 226.4089 133.6543 14.58326448517597 ORBCOMM FM112 1 41184U 15081F 25257.99286312 .00000593 00000+0 16310-3 0 9994 2 41184 46.9985 131.0568 0001335 22.4959 337.5985 14.58385175518773 ORBCOMM FM113 1 41185U 15081G 25258.03830584 .00000561 00000+0 15628-3 0 9993 2 41185 47.0001 131.1812 0001016 38.4645 321.6313 14.58379610518768 ORBCOMM FM115 1 41186U 15081H 25258.22326538 .00000760 00000+0 18230-3 0 9997 2 41186 46.9997 331.3006 0000576 209.0190 151.0665 14.62651638520958 ORBCOMM FM108 1 41187U 15081J 25258.13332804 .00000787 00000+0 20497-3 0 9998 2 41187 47.0058 42.1531 0002051 352.9250 7.1606 14.58301693519923 ORBCOMM FM117 1 41188U 15081K 25257.41443736 .00000475 00000+0 13820-3 0 9992 2 41188 47.0019 44.2814 0002531 4.8882 355.2028 14.58294790519862 ORBCOMM FM116 1 41189U 15081L 25258.08414935 .00000605 00000+0 16571-3 0 9997 2 41189 47.0016 130.9297 0001900 228.7530 131.3192 14.58378951518770